Location: Beang
(6.6177°N, 10.9863°W)
Time: 14:38:28
(UTC+00:00)

USA 234 - Pass Details

Date: 07 June 2020
Orbit: 1102 x 1106 km, 123.0° (Epoch: 14 May)

Event Time Altitude Azimuth Distance (km) Brightness Sun altitude
Rises 04:32:24 0° 29° (NNE) 3,905 7.0 -26.7°
Reaches altitude 10° 04:34:55 10° 26° (NNE) 2,948 6.2 -26.1°
Maximum altitude 04:41:18 61° 307° (NW) 1,238 3.3 -24.8°
Enters shadow 04:42:56 47° 257° (WSW) 1,416 3.4 -24.4°
